This demonstration page uses our WeatherBlox Daily Observations layout. Learn more.

Left ArrowRight Arrow

47.50024, -111.30081

Hourly Observations for May 6, 2019

Temp ( °F °C ) Dew Point ( °F °C ) Humidity (%) Winds ( mph kmh ) Pressure ( in mb ) Visibility ( mi km ) Precip ( " mm )
12:53 am 00:53 Cloudy 36 2.2 33 0.6 89 89 NE 7 11 30.11 1020 10 16 0.00 0.00
1:53 am 01:53 Cloudy 36 2.2 33 0.6 89 89 NE 6 9 30.11 1020 10 16 0.00 0.00
2:53 am 02:53 Cloudy 35 1.7 33 0.6 93 93 NNE 6 9 30.11 1020 10 16 0.00 0.00
3:53 am 03:53 Cloudy 36 2.2 33 0.6 89 89 Calm 30.09 1019 10 16 0.00 0.00
4:53 am 04:53 Cloudy 36 2.2 34 1.1 93 93 Calm 30.09 1019 10 16 0.00 0.00
5:34 am 05:34 Cloudy 35 1.7 34 1.1 96 96 NNE 5 7 30.11 1020 10 16 0.00 0.00
5:53 am 05:53 Cloudy 35 1.7 33 0.6 93 93 NE 5 7 30.10 1019 10 16 0.00 0.00
6:53 am 06:53 Cloudy 35 1.7 33 0.6 93 93 E 3 6 30.10 1019 10 16 0.00 0.00
7:53 am 07:53 Cloudy 36 2.2 34 1.1 93 93 E 5 7 30.11 1020 10 16 0.00 0.00
8:37 am 08:37 Cloudy 37 2.8 35 1.7 93 93 ENE 6 9 30.10 1019 10 16 0.00 0.00
8:53 am 08:53 Cloudy 38 3.3 35 1.7 89 89 ENE 5 7 30.12 1020 10 16 0.00 0.00
9:53 am 09:53 Cloudy 39 3.9 35 1.7 86 86 ENE 3 6 30.13 1020 10 16 0.00 0.00
10:53 am 10:53 Cloudy 42 5.6 36 2.2 79 79 ENE 5 7 30.12 1020 10 16 0.00 0.00
11:21 am 11:21 Cloudy 45 7.2 36 2.2 71 71 VRB 6 9 30.06 1018 10 16 0.00 0.00
11:40 am 11:40 Cloudy 44 6.7 35 1.7 71 71 ESE 5 7 30.05 1018 10 16 0.00 0.00
11:53 am 11:53 Cloudy 44 6.7 35 1.7 71 71 VRB 5 7 30.11 1020 10 16 0.00 0.00
12:53 pm 12:53 Cloudy 46 7.8 35 1.7 66 66 Calm 30.10 1019 10 16 0.00 0.00
1:50 pm 13:50 Cloudy 46 8 36 2 66 66 Calm 30.03 1017 10 16 0.00 0.00
1:53 pm 13:53 Cloudy 48 8.9 35 1.7 61 61 Calm 30.10 1019 10 16 0.00 0.00
2:53 pm 14:53 Cloudy 50 10 36 2.2 59 59 W 3 6 30.09 1019 10 16 0.00 0.00
3:53 pm 15:53 Mostly Sunny 52 11.1 35 1.7 53 53 VRB 6 9 30.06 1018 10 16 0.00 0.00
4:53 pm 16:53 Mostly Sunny 52 11.1 35 1.7 53 53 Calm 30.06 1018 10 16 0.00 0.00
5:53 pm 17:53 Mostly Sunny 55 12.8 35 1.7 47 47 VRB 5 7 30.05 1018 10 16 0.00 0.00
6:53 pm 18:53 Sunny 54 12.2 34 1.1 47 47 NE 5 7 30.04 1017 10 16 0.00 0.00
7:53 pm 19:53 Sunny 50 10 34 1.1 54 54 NNE 6 9 30.06 1018 10 16 0.00 0.00
8:53 pm 20:53 Mostly Cloudy 46 7.8 35 1.7 66 66 NE 8 13 30.07 1018 10 16 0.00 0.00
9:53 pm 21:53 Cloudy 44 6.7 37 2.8 76 76 NE 8 13 30.08 1019 10 16 0.00 0.00
10:53 pm 22:53 Mostly Clear 42 5.6 36 2.2 79 79 ENE 7 11 30.07 1018 10 16 0.00 0.00
11:53 pm 23:53 Clear 39 3.9 36 2.2 89 89 E 7 11 30.06 1018 10 16 0.00 0.00

Powered by AerisWeather